TimeCST,TemperatureF,Dew PointF,Humidity,Sea Level PressureIn,VisibilityMPH,Wind Direction,Wind SpeedMPH,Gust SpeedMPH,PrecipitationIn,Events,Conditions,WindDirDegrees,DateUTC
12:15 AM,53.6,42.1,65,30.28,10.0,ESE,4.6,-,N/A,,Clear,110,2013-02-01 06:15:00
12:35 AM,53.1,43.0,69,30.28,7.0,East,4.6,-,N/A,,Clear,90,2013-02-01 06:35:00
12:55 AM,53.2,43.5,70,30.27,10.0,ESE,4.6,-,N/A,,Clear,120,2013-02-01 06:55:00
1:15 AM,52.3,43.9,73,30.26,7.0,ESE,5.8,-,N/A,,Clear,110,2013-02-01 07:15:00
1:35 AM,53.6,44.6,72,30.27,7.0,ESE,4.6,-,N/A,,Clear,110,2013-02-01 07:35:00
1:55 AM,51.8,44.1,75,30.27,7.0,SE,3.5,-,N/A,,Clear,140,2013-02-01 07:55:00
2:15 AM,52.7,44.6,74,30.27,7.0,SE,4.6,-,N/A,,Clear,140,2013-02-01 08:15:00
2:35 AM,51.3,44.1,76,30.26,7.0,Calm,Calm,-,N/A,,Clear,0,2013-02-01 08:35:00
2:55 AM,52.2,44.4,75,30.26,7.0,ESE,5.8,-,N/A,,Clear,110,2013-02-01 08:55:00
3:15 AM,51.8,44.4,76,30.26,7.0,East,3.5,-,N/A,,Clear,90,2013-02-01 09:15:00
3:35 AM,51.8,44.6,76,30.27,7.0,Calm,Calm,-,N/A,,Clear,0,2013-02-01 09:35:00
4:15 AM,51.4,44.6,77,30.26,7.0,East,4.6,-,N/A,,Clear,90,2013-02-01 10:15:00
4:35 AM,51.8,45.0,77,30.27,7.0,Calm,Calm,-,N/A,,Clear,0,2013-02-01 10:35:00
4:55 AM,52.0,45.1,77,30.26,10.0,East,3.5,-,N/A,,Clear,100,2013-02-01 10:55:00
5:15 AM,52.5,45.5,77,30.28,5.0,Calm,Calm,-,N/A,,Haze,0,2013-02-01 11:15:00
5:35 AM,52.3,45.3,77,30.28,7.0,Calm,Calm,-,N/A,,Clear,0,2013-02-01 11:35:00
6:15 AM,52.2,45.9,79,30.28,7.0,Calm,Calm,-,N/A,,Clear,0,2013-02-01 12:15:00
6:35 AM,53.1,46.4,78,30.28,7.0,Calm,Calm,-,N/A,,Clear,0,2013-02-01 12:35:00
6:55 AM,52.3,46.2,80,30.30,7.0,Calm,Calm,-,N/A,,Scattered Clouds,0,2013-02-01 12:55:00
7:15 AM,51.8,46.0,81,30.31,7.0,Calm,Calm,-,N/A,,Scattered Clouds,0,2013-02-01 13:15:00
7:35 AM,51.8,45.9,80,30.31,7.0,Calm,Calm,-,N/A,,Clear,0,2013-02-01 13:35:00
7:55 AM,52.9,47.3,81,30.31,4.0,Calm,Calm,-,N/A,,Haze,0,2013-02-01 13:55:00
8:15 AM,55.9,49.1,78,30.31,5.0,East,3.5,-,N/A,,Haze,90,2013-02-01 14:15:00
8:35 AM,59.5,50.7,73,30.32,7.0,ESE,4.6,-,N/A,,Clear,110,2013-02-01 14:35:00
9:15 AM,66.4,49.8,55,30.32,7.0,ESE,11.5,-,N/A,,Clear,110,2013-02-01 15:15:00
9:35 AM,68.4,49.6,51,30.33,7.0,ESE,11.5,-,N/A,,Clear,110,2013-02-01 15:35:00
9:55 AM,70.0,49.3,48,30.33,5.0,ESE,12.7,-,N/A,,Haze,120,2013-02-01 15:55:00
10:15 AM,71.2,48.2,44,30.33,7.0,ESE,15.0,-,N/A,,Clear,120,2013-02-01 16:15:00
10:35 AM,72.3,46.9,40,30.33,7.0,ESE,12.7,-,N/A,,Clear,120,2013-02-01 16:35:00
10:55 AM,72.9,45.0,37,30.32,5.0,ESE,11.5,-,N/A,,Haze,120,2013-02-01 16:55:00
11:15 AM,73.9,45.1,36,30.32,7.0,East,12.7,-,N/A,,Clear,100,2013-02-01 17:15:00
11:35 AM,74.7,42.8,32,30.31,7.0,East,9.2,16.1,N/A,,Clear,100,2013-02-01 17:35:00
11:55 AM,75.7,41.9,30,30.30,7.0,ESE,5.8,18.4,N/A,,Clear,120,2013-02-01 17:55:00
12:15 PM,73.6,41.5,32,30.30,7.0,SE,9.2,-,N/A,,Mostly Cloudy,130,2013-02-01 18:15:00
12:35 PM,75.4,41.7,30,30.29,7.0,SSE,6.9,-,N/A,,Overcast,150,2013-02-01 18:35:00
12:55 PM,75.6,41.2,29,30.27,10.0,SE,11.5,17.3,N/A,,Overcast,130,2013-02-01 18:55:00
1:15 PM,75.0,41.2,30,30.26,7.0,SE,9.2,-,N/A,,Overcast,130,2013-02-01 19:15:00
1:35 PM,75.6,41.4,29,30.25,7.0,SE,12.7,-,N/A,,Overcast,140,2013-02-01 19:35:00
1:55 PM,76.3,41.2,28,30.23,7.0,ESE,9.2,-,N/A,,Overcast,120,2013-02-01 19:55:00
2:15 PM,77.0,41.4,28,30.22,5.0,SSE,9.2,-,N/A,,Haze,150,2013-02-01 20:15:00
2:35 PM,75.7,40.8,29,30.21,5.0,East,6.9,-,N/A,,Haze,80,2013-02-01 20:35:00
3:15 PM,75.2,40.8,29,30.21,7.0,SE,9.2,-,N/A,,Overcast,140,2013-02-01 21:15:00
3:35 PM,74.8,40.3,29,30.21,7.0,SE,12.7,18.4,N/A,,Overcast,130,2013-02-01 21:35:00
3:55 PM,74.7,40.3,29,30.20,7.0,SE,15.0,-,N/A,,Overcast,130,2013-02-01 21:55:00
4:15 PM,73.9,40.1,29,30.19,10.0,ESE,12.7,19.6,N/A,,Overcast,120,2013-02-01 22:15:00
4:35 PM,73.4,39.9,30,30.19,7.0,ESE,16.1,-,N/A,,Overcast,110,2013-02-01 22:35:00
4:55 PM,72.7,41.0,32,30.19,7.0,ESE,17.3,-,N/A,,Overcast,120,2013-02-01 22:55:00
5:15 PM,72.1,42.1,34,30.20,7.0,ESE,16.1,-,N/A,,Overcast,120,2013-02-01 23:15:00
5:35 PM,70.9,43.7,38,30.19,5.0,ESE,12.7,-,N/A,,Haze,120,2013-02-01 23:35:00
5:55 PM,70.2,44.6,40,30.20,7.0,ESE,12.7,-,N/A,,Overcast,110,2013-02-01 23:55:00
6:35 PM,68.5,46.2,45,30.20,7.0,ESE,12.7,-,N/A,,Mostly Cloudy,110,2013-02-02 00:35:00
6:55 PM,67.6,46.9,47,30.21,10.0,ESE,9.2,-,N/A,,Scattered Clouds,120,2013-02-02 00:55:00
7:15 PM,68.2,48.2,49,30.21,7.0,ESE,12.7,-,N/A,,Overcast,120,2013-02-02 01:15:00
7:35 PM,68.0,48.7,50,30.21,7.0,ESE,11.5,-,N/A,,Overcast,120,2013-02-02 01:35:00
8:15 PM,67.6,49.6,52,30.22,7.0,ESE,11.5,-,N/A,,Overcast,120,2013-02-02 02:15:00
8:35 PM,67.5,50.0,53,30.23,10.0,ESE,10.4,-,N/A,,Overcast,120,2013-02-02 02:35:00
8:55 PM,67.5,50.5,55,30.23,7.0,ESE,10.4,-,N/A,,Overcast,120,2013-02-02 02:55:00
9:15 PM,67.5,50.9,55,30.24,10.0,ESE,6.9,-,N/A,,Overcast,120,2013-02-02 03:15:00
9:35 PM,67.1,51.1,56,30.23,10.0,ESE,9.2,-,N/A,,Overcast,120,2013-02-02 03:35:00
9:55 PM,66.7,51.3,57,30.23,7.0,ESE,6.9,-,N/A,,Overcast,120,2013-02-02 03:55:00
10:15 PM,66.6,51.8,59,30.23,10.0,ESE,6.9,-,N/A,,Overcast,120,2013-02-02 04:15:00
10:35 PM,66.4,51.8,59,30.23,7.0,ESE,6.9,-,N/A,,Overcast,120,2013-02-02 04:35:00
10:55 PM,66.6,52.0,59,30.22,7.0,ESE,6.9,-,N/A,,Overcast,120,2013-02-02 04:55:00
11:15 PM,66.2,52.3,61,30.22,7.0,ESE,6.9,-,N/A,,Overcast,120,2013-02-02 05:15:00
11:35 PM,65.5,52.5,63,30.21,7.0,SE,5.8,-,N/A,,Overcast,130,2013-02-02 05:35:00
11:55 PM,65.3,52.9,64,30.20,7.0,ESE,4.6,-,N/A,,Overcast,120,2013-02-02 05:55:00